Location: Gleizolles
(44.4833°N, 6.7667°E)
Time: 15:20:20
(UTC+00:00)

Vanguard 1 - Pass Details

Date: 29 June 2024
Orbit: 650 x 3826 km, 34.3° (Epoch: 22 July)

Event Time Altitude Azimuth Distance (km) Brightness Sun altitude
Rises 07:57:53 0° 221° (SW) 7,163 14.2 40.9°
Reaches altitude 10° 08:04:08 10° 212° (SSW) 5,642 13.8 42.0°
Maximum altitude 08:16:14 29° 161° (SSE) 3,127 13.3 44.2°
Drops below altitude 10° 08:23:50 10° 106° (ESE) 3,488 13.9 45.5°
Sets 08:26:38 0° 94° (E) 4,124 14.0 46.0°
